Showing default

CROCUBE, 62394

Orbit data source: Space-Track

CROCUBE, 62394 is a Croatian payload satellite in LEO that was launched on Sat, 21 Dec 2024 UTC via an FALCON 9 launch vehicle from the Air Force Western Test Range (AFWTR). Payload-class satellites include a variety of spacecraft equipped with specific instruments for various scientific and technological missions. These include communications satellites like Starlink; space stations such as the ISS; scientific satellites like the Hubble; Earth observation satellites from companies like Planet Labs, Umbra, and HawkEye 360; GPS; miniature CubeSats for education and research; and military/defense satellites.

Loading next visibility...
Identifier
62394, 2024-247T
Orbit
LEO
Country
Flag of HRHR / HRV
Related business
Manufacturer
SpaceManic
Mission
Operational Amateur Technology
Bus & Motor
CUBESAT 1U, Unknown motor
Mass
1 kg wet, 1 kg dry
Launch date (UTC)
2024-12-21 (1 year ago)
Launch vehicle
FALCON 9
Launch site
Air Force Western Test Range (AFWTR)
Object type
Payload
Rocket body
Debris
Shape & HBR
Box, 0.1 m
Radar Cross Section
0.015 m², Medium (>0.1 m² and < 1m²)

Expand to show TLE details & history
Last TLE update: 1 day ago

TLE from 1 day ago
0 CROCUBE
1 62394U 24247T   26170.49048578  .00032668  00000-0  60622-3 0  9998
2 62394  44.9701 246.5654 0007741 349.0739  10.9982 15.48397693 83709
Epoch: 2026-06-19T11:46Z
TLE epoch observation values (Epoch: 2026-06-19T11:46:17.971Z)
Latitude
-0.00004°
Longitude
162.27177°
Altitude
416.242 km
Speed
7.666 km/s
True Right ascension
16h 26m 15s
True Declination
0° 00' 00"
Sunlit
Object was in full shadow at epoch
Visualization orbit readout
Latitude
Unknown
Longitude
Unknown
Altitude
Unknown
Speed
Unknown
Apparent Right ascension
Unknown
Apparent Declination
Unknown
Sunlit
N/A
Visualization observer readout
Local Sidereal Time
07:19:35
Azimuth
Unknown
Elevation
Unknown
Doppler factor
Unknown
Orbital elements
Apogee altitude
428.306 km
Perigee altitude
417.777 km
Semi-major axis
6,801.179 km
Eccentricity
0.00077
Inclination
44.9701°
RAAN
246.5654°
Arg. of periapsis
349.0739°
True anomaly
11.01514°
Mean anomaly
10.9982°
Eccentric anomaly
11.00667°
Mean motion
3.86961 °/min
Orbital period
93.03 mins
BSTAR
0.00060622
Loading maneuver chart data...
Computing Atmospheric mass density...
Loading historical data...
Loading historical data...
Loading historical data...
Loading historical data...
Loading historical data...
Loading historical data...
Loading historical data...

Documentation

Showing up to 5 results
|